This is the latest recevied weather packets stored in our database for station/object S50ME-11. If no packets are shown the sender has not sent any weather packets the latest 10 day(s).
| Time | Temp. | Humidity | Pressure | Rain* | Wind** | Luminosity | Snow |
|---|---|---|---|---|---|---|---|
| 1777186827 | 22.22° C | 40% | 1019.5 hPa | - | - | - | - |
| 1777185932 | 20.56° C | 41% | 1019.1 hPa | - | - | - | - |
| 1777185927 | 20.56° C | 41% | 1019.1 hPa | - | - | - | - |
| 1777185081 | 18.33° C | 42% | 1019.3 hPa | - | - | - | - |
| 1777185033 | 18.33° C | 42% | 1019.3 hPa | - | - | - | - |
| 1777185026 | 18.33° C | 42% | 1019.3 hPa | - | - | - | - |
| 1777184132 | 16.11° C | 42% | 1019.1 hPa | - | - | - | - |
| 1777184126 | 16.11° C | 42% | 1019.1 hPa | - | - | - | - |
| 1777183239 | 15.56° C | 42% | 1019.1 hPa | - | - | - | - |
| 1777183233 | 15.56° C | 42% | 1019.1 hPa | - | - | - | - |
| 1777182336 | 15° C | 42% | 1018.9 hPa | - | - | - | - |
| 1777182333 | 15° C | 42% | 1018.9 hPa | - | - | - | - |
| 1777181435 | 15° C | 43% | 1018.8 hPa | - | - | - | - |
| 1777181432 | 15° C | 43% | 1018.8 hPa | - | - | - | - |
| 1777180539 | 14.44° C | 43% | 1019.8 hPa | - | - | - | - |
| 1777180532 | 14.44° C | 43% | 1019.8 hPa | - | - | - | - |
| 1777179636 | 13.89° C | 43% | 1019.6 hPa | - | - | - | - |
| 1777179632 | 13.89° C | 43% | 1019.6 hPa | - | - | - | - |
| 1777178735 | 12.78° C | 43% | 1018.2 hPa | - | - | - | - |
| 1777178731 | 12.78° C | 43% | 1018.2 hPa | - | - | - | - |
| 1777177834 | 12.22° C | 43% | 1016.5 hPa | - | - | - | - |
| 1777177831 | 12.22° C | 43% | 1016.5 hPa | - | - | - | - |
| 1777176934 | 12.78° C | 43% | 1016.4 hPa | - | - | - | - |
| 1777176931 | 12.78° C | 43% | 1016.4 hPa | - | - | - | - |
| 1777176034 | 12.78° C | 43% | 1018.3 hPa | - | - | - | - |
* Rain since midnight (hover to see other rain measurements)
** Current wind speed in m/s (hover to see current wind gust speed)